TimeEDT,TemperatureF,Dew PointF,Humidity,Sea Level PressureIn,VisibilityMPH,Wind Direction,Wind SpeedMPH,Gust SpeedMPH,PrecipitationIn,Events,Conditions,WindDirDegrees,DateUTC
12:13 AM,59.0,59.0,100,30.03,0.2,Calm,Calm,-,N/A,Fog,Fog,0,2012-10-05 04:13:00
12:51 AM,59.0,59.0,100,30.03,0.5,Calm,Calm,-,N/A,Fog,Fog,0,2012-10-05 04:51:00
1:51 AM,59.0,59.0,100,30.03,1.2,SW,3.5,-,N/A,,Overcast,220,2012-10-05 05:51:00
2:11 AM,57.2,57.2,100,30.01,0.8,Calm,Calm,-,N/A,,Overcast,0,2012-10-05 06:11:00
2:26 AM,57.2,57.2,100,30.01,0.2,Calm,Calm,-,N/A,Fog,Fog,0,2012-10-05 06:26:00
2:51 AM,57.9,57.9,100,30.01,0.2,Calm,Calm,-,N/A,Fog,Fog,0,2012-10-05 06:51:00
3:51 AM,57.9,57.9,100,30.01,0.2,WSW,3.5,-,N/A,Fog,Fog,240,2012-10-05 07:51:00
4:09 AM,57.2,57.2,100,30.01,0.5,Calm,Calm,-,N/A,Fog,Fog,0,2012-10-05 08:09:00
4:16 AM,57.2,57.2,100,30.01,0.2,Calm,Calm,-,N/A,Fog,Fog,0,2012-10-05 08:16:00
4:51 AM,57.9,57.0,97,30.01,0.2,WSW,3.5,-,N/A,Fog,Fog,250,2012-10-05 08:51:00
4:58 AM,57.2,57.2,100,30.01,0.8,Calm,Calm,-,N/A,,Mist,0,2012-10-05 08:58:00
5:11 AM,57.2,57.2,100,30.01,0.2,Calm,Calm,-,N/A,Fog,Fog,0,2012-10-05 09:11:00
5:51 AM,57.0,57.0,100,30.01,0.2,Calm,Calm,-,N/A,Fog,Fog,0,2012-10-05 09:51:00
6:41 AM,57.2,55.4,94,30.01,0.8,WSW,3.5,-,N/A,,Mist,250,2012-10-05 10:41:00
6:43 AM,57.2,55.4,94,30.01,1.5,Calm,Calm,-,N/A,,Overcast,0,2012-10-05 10:43:00
6:51 AM,57.0,55.9,96,30.02,1.5,West,3.5,-,N/A,,Overcast,260,2012-10-05 10:51:00
7:01 AM,57.2,55.4,94,30.02,3.0,Calm,Calm,-,N/A,,Overcast,0,2012-10-05 11:01:00
7:47 AM,57.2,55.4,94,30.01,5.0,Calm,Calm,-,N/A,,Overcast,0,2012-10-05 11:47:00
7:51 AM,57.0,55.9,96,30.01,5.0,Calm,Calm,-,N/A,,Overcast,0,2012-10-05 11:51:00
8:51 AM,57.0,55.9,96,30.02,5.0,Calm,Calm,-,N/A,,Overcast,0,2012-10-05 12:51:00
9:51 AM,60.1,57.0,90,30.02,7.0,Calm,Calm,-,N/A,,Overcast,0,2012-10-05 13:51:00
10:37 AM,62.6,57.2,82,30.01,10.0,Calm,Calm,-,N/A,,Scattered Clouds,0,2012-10-05 14:37:00
10:51 AM,64.0,57.0,78,30.01,10.0,Calm,Calm,-,N/A,,Clear,0,2012-10-05 14:51:00
11:51 AM,68.0,57.9,70,30.01,10.0,Calm,Calm,-,N/A,,Clear,0,2012-10-05 15:51:00
12:51 PM,73.0,57.0,57,29.98,10.0,Variable,4.6,-,N/A,,Clear,0,2012-10-05 16:51:00
1:51 PM,75.0,55.0,50,29.95,10.0,Variable,4.6,-,N/A,,Clear,0,2012-10-05 17:51:00
2:51 PM,75.0,54.0,48,29.93,10.0,South,4.6,-,N/A,,Clear,190,2012-10-05 18:51:00
3:51 PM,75.9,53.1,45,29.91,10.0,SSW,5.8,-,N/A,,Clear,210,2012-10-05 19:51:00
4:51 PM,75.9,54.0,46,29.91,10.0,SSW,4.6,-,N/A,,Clear,210,2012-10-05 20:51:00
5:51 PM,70.0,57.9,65,29.91,10.0,South,3.5,-,N/A,,Clear,180,2012-10-05 21:51:00
6:51 PM,66.0,55.9,70,29.91,10.0,Calm,Calm,-,N/A,,Clear,0,2012-10-05 22:51:00
7:51 PM,61.0,57.9,90,29.92,10.0,Calm,Calm,-,N/A,,Clear,0,2012-10-05 23:51:00
8:51 PM,57.9,55.9,93,29.92,8.0,Calm,Calm,-,N/A,,Clear,0,2012-10-06 00:51:00
9:51 PM,57.9,55.9,93,29.92,7.0,Calm,Calm,-,N/A,,Clear,0,2012-10-06 01:51:00
10:51 PM,59.0,55.9,90,29.91,10.0,Calm,Calm,-,N/A,,Clear,0,2012-10-06 02:51:00
11:51 PM,57.0,55.0,93,29.90,7.0,Calm,Calm,-,N/A,,Mostly Cloudy,0,2012-10-06 03:51:00